Peoria, IL

7:42 PM CDT on April 22, 2018 (GMT -0500)
Greater Peoria Regional

Weather History for KPIA - January, 2013

Change the Weather History Date:

Thursday, January 10, 2013

  Actual Average Record
Temperature  
Mean Temperature 40 °F 25 °F  
Max Temperature 51 °F 33 °F 59 °F (1975)
Min Temperature 28 °F 17 °F -18 °F (1982)
Degree Days  
Heating Degree Days 26 40  
Month to date heating degree days 400  
Since 1 July heating degree days 2678  
Cooling Degree Days 0 0  
Month to date cooling degree days 0  
Year to date cooling degree days 0  
Moisture  
Dew Point 36 °F    
Average Humidity 87    
Maximum Humidity 100    
Minimum Humidity 38    
Precipitation  
Precipitation 0.75 in 0.06 in 1.47 in (1901)
Month to date precipitation 0.64  
Year to date precipitation 0.64  
Snow  
Snow 0.00 in 0.20 in 3.00 in (1994)
Month to date snowfall 2.3  
Since 1 July snowfall 10.5  
Snow Depth -    
Sea Level Pressure  
Sea Level Pressure 30.10 in    
Wind  
Wind Speed 8 mph (ESE)    
Max Wind Speed 18 mph    
Max Gust Speed 26 mph    
Visibility 5 miles    
Events Fog , Rain    
T = Trace of Precipitation, MM = Missing Value Source: NWS Daily Summary

Daily Weather History Graph

Daily Weather History Graph

Search for Another Location

Airport or City:

Astronomy

Jan. 10, 2013 Rise Set
Actual Time 7:22 AM CST 4:51 PM CST
Civil Twilight 6:51 AM CST 5:21 PM CST
Nautical Twilight 6:17 AM CST 5:55 PM CST
Astronomical Twilight 5:44 AM CST 6:28 PM CST
Moon 6:01 AM CST (1/10) 3:58 PM CST (1/10)
Length of Visible Light 10h 29m
Length of Day
9h 29m
Waning Crescent, 2% of the Moon is Illuminated
Jan 10
Waning Crescent
Jan 11
New
Jan 18
First Quarter
Jan 26
Full
Feb 3
Last Quarter

Hourly Weather History & Observations

Time (CST) Temp. Windchill Dew Point Humidity Pressure Visibility Wind Dir Wind Speed Gust Speed Precip Events Conditions
12:54 AM 28.4 °F 24.6 °F 24.8 °F 86% 30.46 in 10.0 mi ENE 3.5 mph - N/A   Clear
1:54 AM 30.0 °F 26.5 °F 24.1 °F 79% 30.48 in 10.0 mi SE 3.5 mph - N/A   Clear
2:54 AM 30.9 °F 27.5 °F 24.1 °F 76% 30.49 in 10.0 mi ESE 3.5 mph - N/A   Clear
3:54 AM 30.0 °F - 24.1 °F 79% 30.47 in 10.0 mi Calm Calm - N/A   Clear
4:54 AM 26.1 °F 19.4 °F 21.9 °F 84% 30.45 in 10.0 mi NE 5.8 mph - N/A   Clear
5:54 AM 30.0 °F 23.2 °F 23.0 °F 75% 30.43 in 10.0 mi East 6.9 mph - N/A   Clear
6:54 AM 28.9 °F 22.8 °F 23.0 °F 78% 30.44 in 10.0 mi East 5.8 mph - N/A   Clear
7:54 AM 30.9 °F 22.8 °F 24.1 °F 76% 30.41 in 10.0 mi ENE 9.2 mph - N/A   Clear
8:54 AM 34.0 °F 27.2 °F 24.1 °F 67% 30.38 in 10.0 mi ENE 8.1 mph - N/A   Clear
9:54 AM 37.0 °F 30.4 °F 24.1 °F 59% 30.35 in 10.0 mi East 9.2 mph - N/A   Partly Cloudy
10:54 AM 39.0 °F 33.4 °F 24.1 °F 55% 30.30 in 10.0 mi East 8.1 mph - N/A   Overcast
11:54 AM 42.8 °F 37.5 °F 24.8 °F 49% 30.22 in 10.0 mi East 9.2 mph - N/A   Overcast
12:54 PM 43.0 °F 35.4 °F 27.0 °F 53% 30.17 in 10.0 mi ESE 16.1 mph 25.3 mph 0.00 in   Overcast
1:49 PM 41.0 °F 32.2 °F 30.2 °F 65% 30.12 in 2.5 mi ESE 18.4 mph 26.5 mph 0.00 in Rain Light Rain
1:54 PM 39.9 °F 31.8 °F 33.1 °F 77% 30.14 in 1.2 mi ESE 15.0 mph 26.5 mph 0.00 in Rain Light Rain
2:20 PM 37.9 °F 30.0 °F 36.0 °F 93% 30.11 in 1.5 mi ESE 12.7 mph - 0.05 in Rain Light Rain
2:27 PM 37.9 °F 30.5 °F 36.0 °F 93% 30.11 in 1.0 mi ESE 11.5 mph - 0.06 in Rain Light Rain
2:37 PM 39.0 °F 31.4 °F 37.0 °F 93% 30.10 in 1.0 mi ESE 12.7 mph - 0.08 in Rain Light Rain
2:54 PM 39.0 °F 29.9 °F 37.0 °F 93% 30.12 in 2.0 mi SE 17.3 mph 24.2 mph 0.10 in Rain Light Rain
3:02 PM 39.0 °F 31.4 °F 37.0 °F 93% 30.10 in 7.0 mi ESE 12.7 mph 24.2 mph 0.00 in Rain Light Rain
3:54 PM 39.0 °F 32.3 °F 37.0 °F 93% 30.11 in 4.0 mi ESE 10.4 mph - 0.00 in   Overcast
4:21 PM 37.9 °F 30.9 °F 37.0 °F 97% 30.07 in 2.5 mi ESE 10.4 mph - 0.00 in   Overcast
4:32 PM 37.9 °F 31.5 °F 37.0 °F 97% 30.06 in 1.8 mi ESE 9.2 mph - 0.00 in   Overcast
4:50 PM 39.2 °F 32.5 °F 37.4 °F 93% 30.04 in 3.0 mi ESE 10.4 mph - 0.00 in   Overcast
4:51 PM 39.0 °F 32.3 °F 37.0 °F 93% 30.07 in 3.0 mi ESE 10.4 mph - 0.00 in   Overcast
5:36 PM 39.0 °F 32.8 °F 37.9 °F 96% 30.02 in 2.5 mi ESE 9.2 mph - 0.00 in Rain Light Rain
5:54 PM 39.9 °F 33.4 °F 39.0 °F 97% 30.03 in 1.0 mi ESE 10.4 mph - 0.00 in Rain Light Rain
6:11 PM 39.9 °F 33.9 °F 39.0 °F 97% 30.00 in 1.8 mi ESE 9.2 mph - 0.01 in Rain Light Rain
6:29 PM 39.9 °F 33.4 °F 39.0 °F 97% 29.99 in 1.2 mi ESE 10.4 mph - 0.02 in Rain Light Rain
6:41 PM 39.9 °F 33.9 °F 39.9 °F 100% 29.98 in 1.8 mi ESE 9.2 mph - 0.05 in Rain Rain
6:54 PM 41.0 °F 36.4 °F 39.9 °F 96% 29.98 in 2.5 mi ESE 6.9 mph - 0.08 in Rain Light Rain
7:30 PM 41.0 °F 35.2 °F 41.0 °F 100% 29.93 in 1.8 mi ESE 9.2 mph - 0.04 in Rain Rain
7:54 PM 42.1 °F 36.6 °F 41.0 °F 96% 29.96 in 2.5 mi ESE 9.2 mph - 0.25 in Rain Heavy Rain
7:59 PM 42.1 °F 36.1 °F 41.0 °F 96% 29.94 in 3.0 mi ESE 10.4 mph - 0.01 in Rain Rain
8:37 PM 43.0 °F 37.2 °F 42.1 °F 97% 29.92 in 5.0 mi ESE 10.4 mph - 0.03 in Rain Light Rain
8:54 PM 43.0 °F 39.5 °F 42.1 °F 97% 29.93 in 2.0 mi SE 5.8 mph - 0.03 in Rain Light Rain
9:02 PM 43.0 °F 38.2 °F 42.1 °F 97% 29.91 in 1.2 mi SE 8.1 mph - 0.00 in Rain Light Rain
9:24 PM 44.1 °F 40.1 °F 43.0 °F 96% 29.89 in 0.8 mi SE 6.9 mph - 0.01 in   Mist
9:54 PM 45.0 °F 40.1 °F 44.1 °F 97% 29.88 in 0.5 mi SE 9.2 mph - 0.01 in Fog Fog
10:12 PM 46.4 °F 41.5 °F 46.4 °F 100% 29.86 in 1.5 mi SE 10.4 mph - N/A Rain Rain
10:26 PM 48.9 °F - 48.0 °F 97% 29.85 in 2.5 mi SSE 10.4 mph - 0.12 in Rain Rain
10:33 PM 48.9 °F - 48.0 °F 97% 29.84 in 5.0 mi SSE 10.4 mph - 0.12 in Rain Light Rain
10:54 PM 50.0 °F - 48.9 °F 96% 29.84 in 2.0 mi SSE 9.2 mph - 0.20 in Rain Heavy Rain
11:07 PM 50.0 °F - 48.9 °F 96% 29.82 in 4.0 mi SE 10.4 mph - 0.03 in Rain Light Rain
11:54 PM 51.1 °F - 50.0 °F 96% 29.81 in 3.0 mi SSE 12.7 mph - 0.17 in Rain Rain